Hourly Data Report for May 20, 2022

L'ASSOMPTION
QUEBEC
Current Station Operator: ECCC - MSC

45°48'34.000" N
73°26'05.000" W
21.00 m
7014160
71524
WEW

Download Data

Hourly Data (May 2022)
Hourly Data Report for May 20, 2022
TIME
LST
Temp Definition
°C
Dew Point Definition
°C
Rel Hum Definition
%
Precip. Amount Definition
mm

Wind Dir Definition
10's deg

Wind Spd Definition
km/h
Visibility Definition
km
Stn Press Definition
kPa
Hmdx Definition


Wind Chill Definition


Weather Definition


00:00 8.2 7.9 98 0.0 22 4   100.75     LegendNANA
01:00 9.2 8.9 98 0.0 14 1   100.74     LegendNANA
02:00 9.1 8.8 98 0.0 10 3   100.72     LegendNANA
03:00 8.7 8.5 98 0.0 30 3   100.88     LegendNANA
04:00 9.2 8.9 98 0.0 4 2   100.88     LegendNANA
05:00 9.5 9.2 98 0.0 6 3   100.93     LegendNANA
06:00 10.7 10.2 96 0.0 11 5   100.98     LegendNANA
07:00 11.2 10.6 96 0.0 12 7   101.00     LegendNANA
08:00 12.9 10.4 85 0.0 14 9   101.04     LegendNANA
09:00 15.4 10.5 73 0.0 11 9   101.09     LegendNANA
10:00 16.5 10.3 67 0.0 13 11   101.05     LegendNANA
11:00 17.2 11.1 67 0.0 12 15   100.95     LegendNANA
12:00 19.9 13.0 65 0.0 15 15   100.87     LegendNANA
13:00 21.6 13.2 59 0.0 14 14   100.75 25   LegendNANA
14:00 23.4 12.9 52 0.0 12 15   100.62 26   LegendNANA
15:00 24.6 12.9 48 0.0 14 15   100.53 27   LegendNANA
16:00 25.5 13.5 47 0.0 14 17   100.47 29   LegendNANA
17:00 25.8 14.3 49 0.0 16 12   100.36 29   LegendNANA
18:00 25.4 14.2 50 0.0 18 13   100.40 29   LegendNANA
19:00 24.5 14.4 53 0.0 19 14   100.47 28   LegendNANA
20:00 23.9 14.6 56 0.0 17 18   100.42 28   LegendNANA
21:00 24.0 14.3 54 0.0 17 23   100.49 28   LegendNANA
22:00 23.1 14.2 57 0.0 18 22   100.54 27   LegendNANA
23:00 22.3 14.6 62 0.0 18 20   100.53 26   LegendNANA

Notes on Data Quality.

Legend

  • E = Estimated
  • M = Missing
  • NA = Not Available*
  • [empty] = Indicates an unobserved value
Date modified: